BAW510 EGLL-LPFR

Flight info

Callsign BAW510
Flight time 2h 21m
Altitude 35000
Route GASGU N866 SAM M195 LORKU DCT POZOF DCT BALDA DCT ABUPI DCT ORVED DCT UPULO DCT ALAGU
Aircraft A320/M-SDE3FGIJ1KRWXY/SB1

Departure

Time 2026-05-06 16:01
Airport London Heathrow Airport (EGLL)

Arrival

Time 2026-05-06 18:22
Airport Faro - Gago Coutinho International Airport (LPFR)
Time Latitude Longitude Altitude Speed Heading
2026-05-06 15:22 51.47315 -0.48219 86 ft 0 kts 90°
2026-05-06 15:51 51.47315 -0.48240 90 ft 4 kts 90°
2026-05-06 15:51 51.47314 -0.48284 86 ft 4 kts 90°
2026-05-06 15:51 51.47314 -0.48318 86 ft 4 kts 99°
2026-05-06 15:52 51.47324 -0.48352 91 ft 4 kts 152°
2026-05-06 15:52 51.47347 -0.48359 87 ft 4 kts 180°
2026-05-06 15:52 51.47353 -0.48359 88 ft 0 kts 180°
2026-05-06 15:56 51.47343 -0.48359 88 ft 2 kts 180°
2026-05-06 15:56 51.47320 -0.48358 86 ft 4 kts 180°
2026-05-06 15:56 51.47284 -0.48358 86 ft 6 kts 179°
2026-05-06 15:56 51.47241 -0.48357 86 ft 7 kts 179°
2026-05-06 15:57 51.47187 -0.48357 88 ft 9 kts 179°
2026-05-06 15:57 51.47122 -0.48356 88 ft 10 kts 179°
2026-05-06 15:57 51.47048 -0.48355 86 ft 11 kts 179°
2026-05-06 15:57 51.46963 -0.48354 87 ft 13 kts 180°
2026-05-06 15:58 51.46881 -0.48354 86 ft 10 kts 180°
2026-05-06 15:58 51.46806 -0.48354 86 ft 11 kts 180°
2026-05-06 15:58 51.46745 -0.48389 87 ft 8 kts 248°
2026-05-06 15:58 51.46728 -0.48462 89 ft 4 kts 227°
2026-05-06 15:59 51.46697 -0.48468 89 ft 5 kts 179°
2026-05-06 15:59 51.46653 -0.48467 86 ft 7 kts 179°
2026-05-06 15:59 51.46599 -0.48466 86 ft 9 kts 180°
2026-05-06 15:59 51.46533 -0.48466 86 ft 10 kts 179°
2026-05-06 16:00 51.46480 -0.48453 88 ft 5 kts 135°
2026-05-06 16:00 51.46477 -0.48398 87 ft 7 kts 89°
2026-05-06 16:00 51.46480 -0.48040 87 ft 65 kts 89°
2026-05-06 16:00 51.46483 -0.46993 88 ft 120 kts 90°
2026-05-06 16:01 51.46487 -0.45408 90 ft 162 kts 90°
2026-05-06 16:01 51.46483 -0.43579 637 ft 164 kts 85°
2026-05-06 16:01 51.46430 -0.41733 1275 ft 172 kts 100°
2026-05-06 16:01 51.45782 -0.39918 1533 ft 199 kts 124°
2026-05-06 16:02 51.44920 -0.38009 1768 ft 223 kts 122°
2026-05-06 16:02 51.43980 -0.35868 2137 ft 246 kts 123°
2026-05-06 16:02 51.42728 -0.33863 2527 ft 263 kts 147°
2026-05-06 16:02 51.41003 -0.32831 2922 ft 268 kts 172°
2026-05-06 16:03 51.39172 -0.33057 3308 ft 269 kts 199°
2026-05-06 16:03 51.37525 -0.34529 3694 ft 270 kts 223°
2026-05-06 16:03 51.36126 -0.36556 4093 ft 272 kts 224°
2026-05-06 16:03 51.34743 -0.38573 4480 ft 273 kts 224°
2026-05-06 16:04 51.33331 -0.40631 5302 ft 274 kts 224°
2026-05-06 16:04 51.31919 -0.42696 6185 ft 276 kts 226°
2026-05-06 16:04 51.30701 -0.45044 6984 ft 275 kts 242°
2026-05-06 16:04 51.29927 -0.47819 7746 ft 274 kts 256°
2026-05-06 16:05 51.29409 -0.50765 8540 ft 277 kts 257°
2026-05-06 16:05 51.28878 -0.53748 9323 ft 281 kts 256°
2026-05-06 16:05 51.28337 -0.56763 10041 ft 284 kts 256°
2026-05-06 16:05 51.27758 -0.59887 10356 ft 304 kts 255°
2026-05-06 16:06 51.27116 -0.63236 10497 ft 327 kts 255°
2026-05-06 16:06 51.26423 -0.66779 10850 ft 339 kts 254°
2026-05-06 16:06 51.25708 -0.70399 11453 ft 343 kts 254°
2026-05-06 16:06 51.24984 -0.74056 12076 ft 346 kts 254°
2026-05-06 16:07 51.24259 -0.77733 12702 ft 350 kts 254°
2026-05-06 16:07 51.23526 -0.81451 13357 ft 352 kts 254°
2026-05-06 16:07 51.22787 -0.85198 13994 ft 354 kts 254°
2026-05-06 16:07 51.22056 -0.88915 14552 ft 357 kts 254°
2026-05-06 16:08 51.21258 -0.92736 15100 ft 360 kts 249°
2026-05-06 16:08 51.20097 -0.96243 15614 ft 365 kts 238°
2026-05-06 16:08 51.18480 -0.99381 16162 ft 369 kts 227°
2026-05-06 16:08 51.16619 -1.02231 16706 ft 371 kts 226°
2026-05-06 16:09 51.14752 -1.05092 17246 ft 374 kts 225°
2026-05-06 16:09 51.12874 -1.07980 17805 ft 376 kts 225°
2026-05-06 16:09 51.10988 -1.10883 18362 ft 378 kts 225°
2026-05-06 16:09 51.09089 -1.13802 18830 ft 381 kts 225°
2026-05-06 16:10 51.07171 -1.16744 19314 ft 384 kts 225°
2026-05-06 16:10 51.05873 -1.18733 19649 ft 385 kts 226°
2026-05-06 16:10 51.03932 -1.21700 20146 ft 387 kts 225°
2026-05-06 16:10 51.01984 -1.24674 20621 ft 390 kts 225°
2026-05-06 16:11 51.00051 -1.27621 21081 ft 392 kts 225°
2026-05-06 16:11 50.98077 -1.30623 21541 ft 394 kts 225°
2026-05-06 16:11 50.96083 -1.33620 21953 ft 397 kts 223°
2026-05-06 16:11 50.93862 -1.36256 22376 ft 400 kts 215°
2026-05-06 16:12 50.91526 -1.38681 22801 ft 402 kts 215°
2026-05-06 16:12 50.89178 -1.41123 23229 ft 405 kts 215°
2026-05-06 16:12 50.86813 -1.43584 23626 ft 407 kts 215°
2026-05-06 16:12 50.84438 -1.46055 23956 ft 410 kts 215°
2026-05-06 16:13 50.82048 -1.48541 24287 ft 412 kts 215°
2026-05-06 16:13 50.79641 -1.51039 24627 ft 414 kts 214°
2026-05-06 16:13 50.77224 -1.53541 24958 ft 416 kts 214°
2026-05-06 16:13 50.74790 -1.56055 25293 ft 418 kts 214°
2026-05-06 16:14 50.72379 -1.58539 25617 ft 420 kts 214°
2026-05-06 16:14 50.69922 -1.61068 25929 ft 422 kts 214°
2026-05-06 16:14 50.67457 -1.63605 26268 ft 424 kts 214°
2026-05-06 16:14 50.64984 -1.66152 26595 ft 426 kts 214°
2026-05-06 16:15 50.62500 -1.68713 26908 ft 428 kts 214°
2026-05-06 16:15 50.59995 -1.71291 27211 ft 431 kts 214°
2026-05-06 16:15 50.57476 -1.73874 27523 ft 433 kts 214°
2026-05-06 16:15 50.54943 -1.76463 27837 ft 435 kts 214°
2026-05-06 16:16 50.52402 -1.79058 28245 ft 435 kts 214°
2026-05-06 16:16 50.49866 -1.81650 28707 ft 434 kts 214°
2026-05-06 16:16 50.47337 -1.84229 29163 ft 433 kts 214°
2026-05-06 16:16 50.44815 -1.86794 29596 ft 432 kts 214°
2026-05-06 16:17 50.42295 -1.89355 30066 ft 431 kts 214°
2026-05-06 16:17 50.39782 -1.91903 30448 ft 430 kts 214°
2026-05-06 16:17 50.37268 -1.94449 30809 ft 430 kts 214°
2026-05-06 16:17 50.34755 -1.96994 31179 ft 430 kts 214°
2026-05-06 16:18 50.32244 -1.99533 31569 ft 429 kts 214°
2026-05-06 16:18 50.29738 -2.02063 31983 ft 428 kts 214°
2026-05-06 16:18 50.27239 -2.04583 32375 ft 427 kts 214°
2026-05-06 16:18 50.24743 -2.07098 32769 ft 426 kts 214°
2026-05-06 16:19 50.22247 -2.09588 33168 ft 425 kts 214°
2026-05-06 16:19 50.19744 -2.12042 33570 ft 424 kts 213°
2026-05-06 16:19 50.17238 -2.14473 33953 ft 424 kts 213°
2026-05-06 16:19 50.14735 -2.16892 34242 ft 424 kts 213°
2026-05-06 16:20 50.12224 -2.19319 34498 ft 424 kts 213°
2026-05-06 16:20 50.09717 -2.21744 34768 ft 424 kts 213°
2026-05-06 16:20 50.07213 -2.24174 34952 ft 425 kts 213°
2026-05-06 16:20 50.04691 -2.26621 34998 ft 430 kts 213°
2026-05-06 16:21 49.99548 -2.31610 35003 ft 439 kts 213°
2026-05-06 16:21 49.94340 -2.36614 34999 ft 441 kts 211°
2026-05-06 16:22 49.88757 -2.40674 35002 ft 443 kts 206°
2026-05-06 16:22 49.83127 -2.44604 35002 ft 443 kts 206°
2026-05-06 16:23 49.77496 -2.48525 35004 ft 444 kts 206°
2026-05-06 16:23 49.71891 -2.52414 35002 ft 444 kts 206°
2026-05-06 16:24 49.66255 -2.56320 34997 ft 444 kts 206°
2026-05-06 16:24 49.60618 -2.60230 34999 ft 444 kts 206°
2026-05-06 16:25 49.54965 -2.64124 35005 ft 445 kts 205°
2026-05-06 16:25 49.49308 -2.68005 35003 ft 445 kts 206°
2026-05-06 16:26 49.43686 -2.71868 35006 ft 445 kts 206°
2026-05-06 16:26 49.38025 -2.75747 35010 ft 445 kts 205°
2026-05-06 16:27 49.32363 -2.79618 35011 ft 445 kts 205°
2026-05-06 16:27 49.26701 -2.83478 34993 ft 445 kts 205°
2026-05-06 16:28 49.21035 -2.87328 34995 ft 446 kts 205°
2026-05-06 16:28 49.15369 -2.91173 34995 ft 446 kts 205°
2026-05-06 16:29 49.09696 -2.95013 34997 ft 446 kts 205°
2026-05-06 16:29 49.04017 -2.98843 34992 ft 446 kts 205°
2026-05-06 16:30 48.99253 -3.02038 34986 ft 446 kts 205°
2026-05-06 16:30 48.92632 -3.06471 34994 ft 446 kts 205°
2026-05-06 16:31 48.86945 -3.10287 35003 ft 446 kts 205°
2026-05-06 16:31 48.81264 -3.14086 35010 ft 446 kts 205°
2026-05-06 16:32 48.75626 -3.17842 35009 ft 445 kts 205°
2026-05-06 16:32 48.69940 -3.21614 35016 ft 445 kts 205°
2026-05-06 16:33 48.64270 -3.25368 35009 ft 445 kts 205°
2026-05-06 16:34 48.55760 -3.30991 34998 ft 445 kts 205°
2026-05-06 16:34 48.50087 -3.34732 34986 ft 445 kts 205°
2026-05-06 16:35 48.44407 -3.38470 34988 ft 445 kts 205°
2026-05-06 16:35 48.38728 -3.42190 34977 ft 445 kts 205°
2026-05-06 16:36 48.33053 -3.45899 34966 ft 445 kts 205°
2026-05-06 16:36 48.27374 -3.49595 34972 ft 445 kts 205°
2026-05-06 16:37 48.21688 -3.53298 34972 ft 445 kts 205°
2026-05-06 16:37 48.15999 -3.56993 34969 ft 445 kts 205°
2026-05-06 16:38 48.10309 -3.60670 34972 ft 446 kts 205°
2026-05-06 16:38 48.04610 -3.64354 34967 ft 446 kts 205°
2026-05-06 16:39 47.98911 -3.68034 34972 ft 446 kts 205°
2026-05-06 16:39 47.93250 -3.71673 34965 ft 446 kts 205°
2026-05-06 16:40 47.87536 -3.75334 34978 ft 446 kts 205°
2026-05-06 16:40 47.81835 -3.78983 34979 ft 446 kts 205°
2026-05-06 16:41 47.76120 -3.82626 34977 ft 446 kts 205°
2026-05-06 16:41 47.70416 -3.86257 34976 ft 446 kts 205°
2026-05-06 16:42 47.64709 -3.89882 34982 ft 445 kts 205°
2026-05-06 16:42 47.59011 -3.93500 34981 ft 445 kts 205°
2026-05-06 16:43 47.53304 -3.97111 34985 ft 445 kts 205°
2026-05-06 16:43 47.47595 -4.00704 34984 ft 446 kts 205°
2026-05-06 16:44 47.41880 -4.04303 34989 ft 446 kts 205°
2026-05-06 16:44 47.36208 -4.07870 34997 ft 446 kts 205°
2026-05-06 16:45 47.30482 -4.11457 34994 ft 446 kts 205°
2026-05-06 16:45 47.24768 -4.15014 34998 ft 446 kts 205°
2026-05-06 16:46 47.19035 -4.18585 35007 ft 446 kts 205°
2026-05-06 16:46 47.13326 -4.22138 35013 ft 446 kts 205°
2026-05-06 16:47 47.07612 -4.25685 35007 ft 445 kts 205°
2026-05-06 16:47 47.01900 -4.29070 35014 ft 446 kts 202°
2026-05-06 16:48 46.96064 -4.32211 35017 ft 446 kts 201°
2026-05-06 16:48 46.90213 -4.35327 35015 ft 447 kts 202°
2026-05-06 16:49 46.84390 -4.38485 35015 ft 447 kts 202°
2026-05-06 16:49 46.78569 -4.41671 35021 ft 447 kts 202°
2026-05-06 16:50 46.72743 -4.44854 35022 ft 447 kts 202°
2026-05-06 16:50 46.66917 -4.48021 35025 ft 447 kts 202°
2026-05-06 16:51 46.61089 -4.51167 35028 ft 447 kts 202°
2026-05-06 16:51 46.56238 -4.53783 35026 ft 447 kts 202°
2026-05-06 16:52 46.49466 -4.57435 35028 ft 447 kts 202°
2026-05-06 16:52 46.44579 -4.60062 35028 ft 446 kts 202°
2026-05-06 16:53 46.38795 -4.63176 35023 ft 446 kts 202°
2026-05-06 16:53 46.32962 -4.66302 35028 ft 446 kts 202°
2026-05-06 16:54 46.27133 -4.69409 35021 ft 446 kts 202°
2026-05-06 16:54 46.21310 -4.72510 35024 ft 446 kts 202°
2026-05-06 16:55 46.15477 -4.75607 35027 ft 446 kts 202°
2026-05-06 16:55 46.09656 -4.78698 35030 ft 446 kts 202°
2026-05-06 16:56 46.03830 -4.81791 35027 ft 446 kts 201°
2026-05-06 16:56 45.98005 -4.84864 35031 ft 446 kts 201°
2026-05-06 16:57 45.92184 -4.87934 35032 ft 446 kts 201°
2026-05-06 16:57 45.86356 -4.90990 35033 ft 446 kts 201°
2026-05-06 16:58 45.80530 -4.94029 35035 ft 445 kts 201°
2026-05-06 16:58 45.74712 -4.97072 35035 ft 445 kts 201°
2026-05-06 16:59 45.68937 -5.00100 35035 ft 445 kts 201°
2026-05-06 16:59 45.63125 -5.03140 35037 ft 444 kts 201°
2026-05-06 17:00 45.57309 -5.06160 35037 ft 444 kts 201°
2026-05-06 17:00 45.51496 -5.09163 35037 ft 444 kts 201°
2026-05-06 17:01 45.45690 -5.12172 35032 ft 444 kts 201°
2026-05-06 17:01 45.39880 -5.15182 35036 ft 444 kts 201°
2026-05-06 17:02 45.34077 -5.18171 35038 ft 443 kts 201°
2026-05-06 17:02 45.28268 -5.21150 35038 ft 443 kts 201°
2026-05-06 17:03 45.22469 -5.24130 35033 ft 443 kts 201°
2026-05-06 17:03 45.16672 -5.27106 35034 ft 443 kts 201°
2026-05-06 17:04 45.10880 -5.30071 35035 ft 443 kts 201°
2026-05-06 17:04 45.05085 -5.33021 35029 ft 442 kts 201°
2026-05-06 17:05 44.99290 -5.35967 35031 ft 442 kts 201°
2026-05-06 17:05 44.93531 -5.38887 35036 ft 442 kts 201°
2026-05-06 17:06 44.87747 -5.41820 35036 ft 442 kts 201°
2026-05-06 17:06 44.81951 -5.44751 35034 ft 442 kts 201°
2026-05-06 17:07 44.76167 -5.47670 35035 ft 441 kts 201°
2026-05-06 17:07 44.70386 -5.50582 35032 ft 441 kts 201°
2026-05-06 17:08 44.64593 -5.53492 35031 ft 441 kts 201°
2026-05-06 17:08 44.58824 -5.56455 35029 ft 441 kts 203°
2026-05-06 17:09 44.53204 -5.59874 35028 ft 440 kts 206°
2026-05-06 17:09 44.47677 -5.63463 35023 ft 440 kts 206°
2026-05-06 17:10 44.42094 -5.67003 35022 ft 440 kts 205°
2026-05-06 17:10 44.36486 -5.70443 35023 ft 440 kts 205°
2026-05-06 17:11 44.30864 -5.73864 35025 ft 440 kts 205°
2026-05-06 17:11 44.25257 -5.77294 35019 ft 440 kts 205°
2026-05-06 17:12 44.19645 -5.80727 35023 ft 440 kts 205°
2026-05-06 17:12 44.14040 -5.84157 35025 ft 440 kts 205°
2026-05-06 17:13 44.08435 -5.87574 35026 ft 440 kts 205°
2026-05-06 17:13 44.02821 -5.90973 35022 ft 440 kts 205°
2026-05-06 17:14 43.97207 -5.94372 35024 ft 440 kts 205°
2026-05-06 17:14 43.91600 -5.97761 35025 ft 440 kts 205°
2026-05-06 17:15 43.85988 -6.01151 35021 ft 440 kts 205°
2026-05-06 17:15 43.80418 -6.04508 35026 ft 439 kts 205°
2026-05-06 17:16 43.74811 -6.07883 35028 ft 439 kts 205°
2026-05-06 17:16 43.69203 -6.11248 35031 ft 439 kts 205°
2026-05-06 17:17 43.63604 -6.14598 35031 ft 439 kts 205°
2026-05-06 17:17 43.57996 -6.17943 35044 ft 438 kts 205°
2026-05-06 17:18 43.52400 -6.21278 35044 ft 438 kts 205°
2026-05-06 17:18 43.46799 -6.24606 35039 ft 438 kts 205°
2026-05-06 17:19 43.41203 -6.27924 35032 ft 438 kts 205°
2026-05-06 17:19 43.35610 -6.31232 35030 ft 437 kts 205°
2026-05-06 17:20 43.30013 -6.34548 35020 ft 437 kts 205°
2026-05-06 17:20 43.24426 -6.37859 35006 ft 437 kts 205°
2026-05-06 17:21 43.18870 -6.41136 35011 ft 437 kts 205°
2026-05-06 17:21 43.13280 -6.44411 35001 ft 436 kts 205°
2026-05-06 17:22 43.07702 -6.47679 34993 ft 436 kts 205°
2026-05-06 17:22 43.02131 -6.50948 34986 ft 435 kts 205°
2026-05-06 17:23 42.96561 -6.54208 34978 ft 435 kts 205°
2026-05-06 17:23 42.91000 -6.57448 34968 ft 434 kts 205°
2026-05-06 17:24 42.85443 -6.60684 34970 ft 434 kts 205°
2026-05-06 17:24 42.79888 -6.63905 34959 ft 433 kts 205°
2026-05-06 17:25 42.74332 -6.67123 34956 ft 433 kts 205°
2026-05-06 17:25 42.68796 -6.70323 34967 ft 432 kts 205°
2026-05-06 17:26 42.63253 -6.73522 34955 ft 432 kts 205°
2026-05-06 17:26 42.57721 -6.76708 34945 ft 432 kts 205°
2026-05-06 17:27 42.52186 -6.79893 34946 ft 432 kts 205°
2026-05-06 17:27 42.46654 -6.83066 34946 ft 432 kts 205°
2026-05-06 17:28 42.41123 -6.86244 34957 ft 432 kts 205°
2026-05-06 17:28 42.35586 -6.89413 34949 ft 431 kts 205°
2026-05-06 17:29 42.30061 -6.92566 34959 ft 431 kts 205°
2026-05-06 17:29 42.24549 -6.95709 34951 ft 430 kts 205°
2026-05-06 17:30 42.19034 -6.98848 34944 ft 430 kts 205°
2026-05-06 17:30 42.13523 -7.01972 34956 ft 429 kts 205°
2026-05-06 17:31 42.08013 -7.05087 34949 ft 429 kts 205°
2026-05-06 17:31 42.02504 -7.08205 34946 ft 429 kts 205°
2026-05-06 17:32 41.97037 -7.11304 34933 ft 429 kts 205°
2026-05-06 17:32 41.91531 -7.14402 34931 ft 429 kts 205°
2026-05-06 17:33 41.86017 -7.17492 34934 ft 429 kts 205°
2026-05-06 17:33 41.80510 -7.20587 34931 ft 429 kts 205°
2026-05-06 17:34 41.75907 -7.23073 34921 ft 430 kts 199°
2026-05-06 17:34 41.70001 -7.24552 34915 ft 433 kts 190°
2026-05-06 17:35 41.64021 -7.25627 34920 ft 433 kts 190°
2026-05-06 17:35 41.58039 -7.26702 34908 ft 434 kts 190°
2026-05-06 17:36 41.49071 -7.28335 34910 ft 434 kts 190°
2026-05-06 17:36 41.43086 -7.29413 34904 ft 434 kts 190°
2026-05-06 17:37 41.37101 -7.30485 34912 ft 434 kts 190°
2026-05-06 17:37 41.31119 -7.31563 34907 ft 434 kts 191°
2026-05-06 17:38 41.25177 -7.32635 34905 ft 434 kts 191°
2026-05-06 17:38 41.19191 -7.33710 34911 ft 434 kts 191°
2026-05-06 17:39 41.13207 -7.34778 34915 ft 434 kts 191°
2026-05-06 17:39 41.07222 -7.35845 34901 ft 434 kts 191°
2026-05-06 17:40 41.01237 -7.36913 34905 ft 434 kts 191°
2026-05-06 17:40 40.95254 -7.37976 34907 ft 434 kts 191°
2026-05-06 17:41 40.89270 -7.39032 34900 ft 434 kts 191°
2026-05-06 17:41 40.83283 -7.40091 34907 ft 434 kts 191°
2026-05-06 17:42 40.77306 -7.41149 34911 ft 433 kts 191°
2026-05-06 17:42 40.71332 -7.42215 34914 ft 433 kts 191°
2026-05-06 17:43 40.65358 -7.43274 34896 ft 433 kts 191°
2026-05-06 17:43 40.59415 -7.44307 34903 ft 433 kts 191°
2026-05-06 17:44 40.53442 -7.45343 34914 ft 433 kts 191°
2026-05-06 17:44 40.47473 -7.46391 34912 ft 433 kts 191°
2026-05-06 17:45 40.41498 -7.47441 34915 ft 433 kts 191°
2026-05-06 17:45 40.35531 -7.48486 34915 ft 432 kts 191°
2026-05-06 17:46 40.29567 -7.49529 34916 ft 432 kts 191°
2026-05-06 17:46 40.23597 -7.50566 34916 ft 432 kts 191°
2026-05-06 17:47 40.17631 -7.51593 34907 ft 432 kts 191°
2026-05-06 17:47 40.11667 -7.52620 34905 ft 432 kts 192°
2026-05-06 17:48 40.05705 -7.53661 34911 ft 432 kts 192°
2026-05-06 17:48 39.99746 -7.54698 34884 ft 432 kts 192°
2026-05-06 17:49 39.93788 -7.55726 34895 ft 432 kts 192°
2026-05-06 17:49 39.87822 -7.56747 34893 ft 432 kts 192°
2026-05-06 17:50 39.81860 -7.57768 34894 ft 432 kts 192°
2026-05-06 17:50 39.75902 -7.58795 34870 ft 432 kts 192°
2026-05-06 17:51 39.69943 -7.59824 34887 ft 432 kts 192°
2026-05-06 17:51 39.64021 -7.60832 34897 ft 432 kts 191°
2026-05-06 17:52 39.58062 -7.61842 34896 ft 432 kts 191°
2026-05-06 17:52 39.52106 -7.62858 34882 ft 431 kts 192°
2026-05-06 17:53 39.46159 -7.63874 34884 ft 431 kts 191°
2026-05-06 17:53 39.40210 -7.64883 34889 ft 431 kts 191°
2026-05-06 17:54 39.34183 -7.65190 34890 ft 435 kts 184°
2026-05-06 17:54 39.28132 -7.65183 34880 ft 435 kts 184°
2026-05-06 17:55 39.22076 -7.65198 34886 ft 435 kts 184°
2026-05-06 17:55 39.16016 -7.65210 34890 ft 435 kts 184°
2026-05-06 17:56 39.09958 -7.65207 34873 ft 435 kts 184°
2026-05-06 17:56 39.03940 -7.65202 34879 ft 435 kts 184°
2026-05-06 17:57 38.97874 -7.65042 34887 ft 436 kts 182°
2026-05-06 17:57 38.91811 -7.64741 34889 ft 436 kts 182°
2026-05-06 17:58 38.85737 -7.64451 34878 ft 436 kts 182°
2026-05-06 17:58 38.79670 -7.64202 34886 ft 436 kts 182°
2026-05-06 17:59 38.73611 -7.63974 34887 ft 435 kts 182°
2026-05-06 17:59 38.67550 -7.63748 34892 ft 436 kts 182°
2026-05-06 18:00 38.61487 -7.63505 34607 ft 435 kts 182°
2026-05-06 18:00 38.58464 -7.63381 34369 ft 434 kts 182°
2026-05-06 18:00 38.55452 -7.63257 34134 ft 433 kts 182°
2026-05-06 18:01 38.52436 -7.63136 33464 ft 436 kts 182°
2026-05-06 18:01 38.49389 -7.63018 32615 ft 439 kts 182°
2026-05-06 18:01 38.46365 -7.62905 31811 ft 442 kts 182°
2026-05-06 18:01 38.43308 -7.62789 31322 ft 437 kts 182°
2026-05-06 18:02 38.40284 -7.62672 30762 ft 433 kts 182°
2026-05-06 18:02 38.37285 -7.62553 30229 ft 430 kts 182°
2026-05-06 18:02 38.34305 -7.62436 29644 ft 427 kts 182°
2026-05-06 18:02 38.31352 -7.62318 29099 ft 422 kts 182°
2026-05-06 18:03 38.28434 -7.62204 28569 ft 417 kts 182°
2026-05-06 18:03 38.25548 -7.62089 28043 ft 413 kts 182°
2026-05-06 18:03 38.22695 -7.61973 27521 ft 408 kts 182°
2026-05-06 18:03 38.19865 -7.61858 27005 ft 404 kts 182°
2026-05-06 18:04 38.17070 -7.61749 26495 ft 400 kts 182°
2026-05-06 18:04 38.14300 -7.61644 25996 ft 396 kts 182°
2026-05-06 18:04 38.11556 -7.61543 25503 ft 393 kts 182°
2026-05-06 18:04 38.08831 -7.61443 25013 ft 390 kts 182°
2026-05-06 18:05 38.06130 -7.61384 24516 ft 387 kts 183°
2026-05-06 18:05 38.03449 -7.61380 24056 ft 384 kts 183°
2026-05-06 18:05 38.00787 -7.61398 23595 ft 382 kts 183°
2026-05-06 18:05 37.98136 -7.61421 23083 ft 379 kts 183°
2026-05-06 18:06 37.95511 -7.61440 22623 ft 375 kts 183°
2026-05-06 18:06 37.92913 -7.61455 22174 ft 371 kts 183°
2026-05-06 18:06 37.90348 -7.61464 21742 ft 367 kts 183°
2026-05-06 18:06 37.87813 -7.61468 21298 ft 363 kts 183°
2026-05-06 18:07 37.85328 -7.61467 20850 ft 360 kts 183°
2026-05-06 18:07 37.82832 -7.61462 20408 ft 357 kts 182°
2026-05-06 18:07 37.80358 -7.61459 19949 ft 354 kts 182°
2026-05-06 18:07 37.77907 -7.61459 19496 ft 351 kts 182°
2026-05-06 18:08 37.75470 -7.61459 19031 ft 349 kts 182°
2026-05-06 18:08 37.73046 -7.61459 18562 ft 348 kts 182°
2026-05-06 18:08 37.70630 -7.61458 18078 ft 346 kts 182°
2026-05-06 18:08 37.68226 -7.61458 17572 ft 344 kts 182°
2026-05-06 18:09 37.65843 -7.61460 17099 ft 341 kts 182°
2026-05-06 18:09 37.63471 -7.61463 16627 ft 339 kts 182°
2026-05-06 18:09 37.61125 -7.61465 16159 ft 336 kts 182°
2026-05-06 18:09 37.58795 -7.61467 15691 ft 334 kts 182°
2026-05-06 18:10 37.56474 -7.61469 15224 ft 332 kts 182°
2026-05-06 18:10 37.54170 -7.61471 14761 ft 331 kts 182°
2026-05-06 18:10 37.51873 -7.61473 14299 ft 329 kts 182°
2026-05-06 18:10 37.49584 -7.61473 13835 ft 328 kts 182°
2026-05-06 18:11 37.47301 -7.61473 13332 ft 327 kts 182°
2026-05-06 18:11 37.45795 -7.61473 13013 ft 326 kts 182°
2026-05-06 18:11 37.42805 -7.61470 12402 ft 323 kts 182°
2026-05-06 18:11 37.40560 -7.61468 11948 ft 322 kts 181°
2026-05-06 18:12 37.38321 -7.61467 11503 ft 321 kts 182°
2026-05-06 18:12 37.36087 -7.61468 11040 ft 320 kts 182°
2026-05-06 18:12 37.33860 -7.61470 10584 ft 320 kts 182°
2026-05-06 18:12 37.31640 -7.61469 10263 ft 316 kts 181°
2026-05-06 18:13 37.29473 -7.61468 10137 ft 305 kts 181°
2026-05-06 18:13 37.27387 -7.61470 10017 ft 295 kts 182°
2026-05-06 18:13 37.25354 -7.61474 9835 ft 288 kts 182°
2026-05-06 18:13 37.23361 -7.61478 9672 ft 288 kts 181°
2026-05-06 18:14 37.21354 -7.61482 9271 ft 288 kts 181°
2026-05-06 18:14 37.19363 -7.61482 9016 ft 284 kts 181°
2026-05-06 18:14 37.17398 -7.61483 8745 ft 280 kts 180°
2026-05-06 18:14 37.15457 -7.61481 8386 ft 280 kts 180°
2026-05-06 18:15 37.13500 -7.61482 8001 ft 282 kts 180°
2026-05-06 18:15 37.11540 -7.61486 7646 ft 282 kts 179°
2026-05-06 18:15 37.09580 -7.61495 7289 ft 282 kts 180°
2026-05-06 18:15 37.07650 -7.61869 6758 ft 281 kts 196°
2026-05-06 18:16 37.05845 -7.62799 6341 ft 275 kts 202°
2026-05-06 18:16 37.04143 -7.63751 6183 ft 260 kts 202°
2026-05-06 18:16 37.02505 -7.64661 5775 ft 256 kts 202°
2026-05-06 18:16 37.00894 -7.65552 5382 ft 250 kts 203°
2026-05-06 18:17 36.99309 -7.66442 4956 ft 247 kts 208°
2026-05-06 18:17 36.98093 -7.67807 4836 ft 228 kts 242°
2026-05-06 18:17 36.97646 -7.69595 4672 ft 208 kts 271°
2026-05-06 18:17 36.97825 -7.71345 4357 ft 203 kts 282°
2026-05-06 18:18 36.98076 -7.73087 3811 ft 203 kts 283°
2026-05-06 18:18 36.98320 -7.74793 3460 ft 193 kts 285°
2026-05-06 18:18 36.98546 -7.76370 3212 ft 185 kts 286°
2026-05-06 18:18 36.98774 -7.77945 2897 ft 183 kts 284°
2026-05-06 18:19 36.98997 -7.79496 2637 ft 179 kts 284°
2026-05-06 18:19 36.99215 -7.81012 2399 ft 175 kts 285°
2026-05-06 18:19 36.99429 -7.82503 2157 ft 171 kts 284°
2026-05-06 18:19 36.99632 -7.83922 1932 ft 160 kts 284°
2026-05-06 18:20 36.99821 -7.85247 1736 ft 148 kts 284°
2026-05-06 18:20 36.99940 -7.86077 1603 ft 144 kts 284°
2026-05-06 18:20 37.00115 -7.87291 1414 ft 141 kts 285°
2026-05-06 18:20 37.00288 -7.88500 1227 ft 141 kts 283°
2026-05-06 18:21 37.00459 -7.89693 1043 ft 138 kts 282°
2026-05-06 18:21 37.00627 -7.90861 827 ft 136 kts 281°
2026-05-06 18:21 37.00798 -7.92026 673 ft 136 kts 278°
2026-05-06 18:21 37.00963 -7.93189 500 ft 137 kts 279°
2026-05-06 18:22 37.01125 -7.94370 308 ft 138 kts 282°
2026-05-06 18:22 37.01298 -7.95546 135 ft 137 kts 284°
2026-05-06 18:22 37.01464 -7.96707 28 ft 127 kts 282°
2026-05-06 18:22 37.01616 -7.97374 20 ft 20 kts 280°
2026-05-06 18:23 37.01617 -7.97397 18 ft 0 kts 273°
2026-05-06 18:26 37.01919 -7.96837 20 ft 0 kts 10°